Back to catalog

USA 433

AliveMilitaryVLEO
NORAD 61656·PAYLOAD·🇺🇸 United States

Launched Oct 24, 2024 from Vandenberg Space Force Base

Loading…

Next Passes (next 24 hours)

TLE

StaleSource: Mike McCants

Epoch: Aug 11, 2026, 19:44 UTC

1 61656U 24192N   26223.82272523 0.00000000  00000-0  00000-0 0    01
2 61656  70.0193 112.3886 0003000 232.2006 127.7994 14.96713670    06

Track USA 433 in real time with AllMySat

Download on the App Store